Tracking 30160 objects as of 14-Feb-2025
HD Live streaming from Space Station
objects crossing your sky now

COSMOS 1823 DEB

Track COSMOS 1823 DEB now!
10-day predictions


NORAD ID: 18729
Int'l Code: 1987-020G
Perigee: 1,481.7 km
Apogee: 1,686.3 km
Inclination: 73.8 °
Period: 117.7 minutes
Semi major axis: 7955 km
RCS: 0.1765 m2 (medium)
Launch date: February 20, 1987
Source: Commonwealth of Independent States (former USSR) (CIS)
Launch site: PLESETSK MISSILE AND SPACE COMPLEX (PKMTR)

Note: This is SATELLITE DEBRIS
Your satellite tracking list
Your tracking list is empty




NASA's NSSDC Master Catalog

Two Line Element Set (TLE):
1 18729U 87020G   25044.19072475  .00000014  00000-0  26434-3 0  9991
2 18729  73.8127  91.4389 0128585 185.8941 234.5700 12.23605300659188
Source of the keplerian elements: AFSPC